Regional Weather Roundup
Issued by NWS Glasgow, MT

Home | Current Version | Previous Version | Text Only | Print | Product List | Glossary On
Versions: 1 2 3 4 5 6 7 8 9 10 11 12 13 14 15 16 17 18 19 20 21 22 23 24 25 26 27 28 29 30 31 32 33 34 35 36 37 38 39 40 41 42 43 44 45 46 47 48 49 50
000
ASUS45 KGGW 262215
RWRGGW
HOURLY WEATHER ROUNDUP FOR NORTHEAST MONTANA
NATIONAL WEATHER SERVICE GLASGOW MONTANA
400 PM MDT SUN APR 26 2015

NOTE: "FAIR" INDICATES FEW OR NO CLOUDS BELOW 12,000 FEET WITH NO
SIGNIFICANT WEATHER AND/OR OBSTRUCTIONS TO VISISBILITY.

NORTHEAST MONTANA


CITY           SKY/WX    TMP DP  RH WIND       PRES   REMARKS
GLASGOW        CLOUDY    43  33  68 NW12      30.18R
PLENTYWOOD       N/A     51  32  48 N6G14       N/A
WOLF POINT     CLOUDY    49  35  58 W5        30.16R
JORDAN           N/A     42  31  64 N10       30.18R
WINNETT          N/A     42  29  59 NW13        N/A
SIDNEY         PTSUNNY   52  36  54 NW9       30.14R
GLENDIVE       CLOUDY    48  34  57 N14       30.13S
MALTA            N/A     42  32  67 W8          N/A
SCOBEY           N/A     44  30  58 NW9       30.13R
OPHEIM           N/A     37  32  81 N8        30.13R

FORT PECK REPORTS


CITY           SKY/WX    TMP DP  RH WIND       PRES   REMARKS
FORT PECK        N/A     42  34  73 W12         N/A
THE PINES        N/A     42  32  67 N6          N/A

SOUTHEAST MONTANA


CITY           SKY/WX    TMP DP  RH WIND       PRES   REMARKS
BILLINGS       LGT RAIN  36  34  92 NE16      30.15R
MILES CITY     LGT RAIN  43  38  82 N13       30.14R
BAKER          LGT RAIN  43  40  89 NE10      30.11R
LIVINGSTON     CLOUDY    41  34  76 E21       30.09R

CENTRAL MONTANA


CITY           SKY/WX    TMP DP  RH WIND       PRES   REMARKS
HAVRE          CLOUDY    42  29  59 CALM      30.21R
LEWISTOWN      CLOUDY    39  30  70 VRB3      30.17S
GREAT FALLS    CLOUDY    43  27  53 CALM      30.18S
CUT BANK       CLOUDY    44  25  47 CALM      30.16S
HELENA         CLOUDY    39  33  79 W8        30.17R
BUTTE          CLOUDY    36  30  79 W8        30.13R
BOZEMAN        LGT RAIN  40  37  89 SW13      30.10R FOG

WESTERN MONTANA


CITY           SKY/WX    TMP DP  RH WIND       PRES   REMARKS
MISSOULA       LGT RAIN  44  40  85 S5        30.18R
KALISPELL      NOT AVBL

NORTH DAKOTA


CITY           SKY/WX    TMP DP  RH WIND       PRES   REMARKS
WILLISTON      MOSUNNY   56  35  45 VRB3      30.13S
DICKINSON      LGT RAIN  44  41  89 NE9       30.10R
MINOT          CLOUDY    48  45  89 SE5       30.12S
BISMARCK       CLOUDY    59  43  55 NE3       30.09S

SOUTHERN SASKATCHEWAN


CITY           SKY/WX    TMP DP  RH WIND       PRES   REMARKS
REGINA         CLOUDY    41  34  75 NW14      30.15R
MOOSE JAW      CLOUDY    41  36  81 NW13      30.16R
ESTEVAN        MOSUNNY   52  36  54 NW8       30.12S
SWIFT CURRENT  PTSUNNY   46  34  61 NW13      30.13S



USA.gov is the U.S. government's official web portal to all federal, state and local government web resources and services.